Location: Coors Field
(39.7564°N, 104.9943°W)
Time: 18:56:34
(UTC-06:00)

ISS - Visible Passes

Search period start: 29 July 2014 00:00
Search period end: 08 August 2014 00:00
Orbit: 411 x 419 km, 51.6° (Epoch: 29 July)

Date Brightness Start Highest point End Pass type
(mag) Time Alt. Az. Time Alt. Az. Time Alt. Az.
29 Jul 0.1 01:44:13 13° NNE 01:44:13 13° NNE 01:44:54 10° NNE visible
29 Jul 0.0 03:19:26 10° NNW 03:20:24 11° N 03:21:22 10° NNE visible
29 Jul -0.4 04:55:36 10° NNW 04:58:09 20° NNE 05:00:41 10° ENE visible
30 Jul 0.0 02:30:12 10° NNW 02:31:15 11° N 02:32:19 10° NNE visible
30 Jul -0.2 04:07:01 10° NNW 04:09:06 15° NNE 04:11:11 10° NE visible
31 Jul 0.2 01:42:46 12° N 01:42:46 12° N 01:43:34 10° NNE visible
31 Jul 0.0 03:18:24 10° NNW 03:20:00 13° NNE 03:21:36 10° NE visible
31 Jul -1.6 04:54:19 10° NW 04:57:28 37° NNE 05:00:37 10° E visible
01 Aug 0.1 02:29:43 10° NNW 02:30:52 11° N 02:32:02 10° NNE visible
01 Aug -0.9 04:05:40 10° NNW 04:08:31 25° NNE 04:11:21 10° E visible
02 Aug 0.3 01:41:57 11° N 01:41:57 11° N 01:42:39 10° NNE visible
02 Aug -0.4 03:17:02 10° NNW 03:19:29 19° NNE 03:21:56 10° ENE visible
02 Aug -3.4 04:53:12 10° NW 04:56:34 84° SW 04:59:54 10° SE visible
02 Aug -3.1 21:34:50 10° SSW 21:38:02 48° SE 21:41:09 11° ENE visible
02 Aug -0.8 23:12:07 10° W 23:14:17 23° NW 23:14:17 23° NW visible
03 Aug -0.1 02:29:21 13° N 02:30:24 15° NNE 02:32:23 10° NE visible
03 Aug -2.6 04:04:24 10° NW 04:07:42 55° NE 04:10:59 10° ESE visible
03 Aug -2.3 20:46:28 10° SSW 20:49:17 26° SE 20:52:07 10° ENE visible
03 Aug -1.6 22:22:49 10° W 22:25:54 35° NNW 22:29:00 10° NE visible
04 Aug 0.2 00:01:52 10° NW 00:02:58 12° NNW 00:02:58 12° NNW visible
04 Aug -1.5 03:19:15 32° NE 03:19:15 32° NE 03:21:51 10° E visible
04 Aug -2.4 04:52:30 10° WNW 04:55:25 28° SW 04:58:19 10° SSE visible
04 Aug -2.6 21:33:42 10° WSW 21:36:58 57° NW 21:40:16 10° NE visible
04 Aug -0.1 23:12:15 10° NW 23:14:15 15° NNW 23:16:16 10° NNE visible
05 Aug -3.4 20:44:48 10° SW 20:48:06 80° SE 20:51:26 10° NE visible
05 Aug -0.4 22:22:42 10° WNW 22:25:09 19° NNW 22:27:37 10° NNE visible
06 Aug 0.3 00:02:00 10° NNW 00:02:40 11° N 00:02:40 11° N visible
06 Aug -0.9 21:33:16 10° W 21:36:06 26° NNW 21:38:57 10° NNE visible
06 Aug 0.1 23:12:34 10° NNW 23:13:43 11° N 23:14:53 10° NNE visible
07 Aug -1.7 20:43:58 10° WSW 20:47:06 38° NNW 20:50:14 10° NE visible
07 Aug -0.1 22:22:56 10° NW 22:24:32 13° NNW 22:26:09 10° NNE visible
